Philadelphia, PA

8:25 PM EDT on October 21, 2017 (GMT -0400)
Philadelphia International

Weather History for KPHL - January, 2014

Change the Weather History Date:

Sunday, January 19, 2014

  Actual Average Record
Temperature  
Mean Temperature 32 °F 33 °F  
Max Temperature 42 °F 40 °F 65 °F (1951)
Min Temperature 21 °F 25 °F -5 °F (1994)
Degree Days  
Heating Degree Days 33 32  
Month to date heating degree days 624 606  
Since 1 July heating degree days 2237 2276  
Cooling Degree Days 0 0  
Month to date cooling degree days 0 0  
Year to date cooling degree days 0 0  
Moisture  
Dew Point 15 °F    
Average Humidity 50    
Maximum Humidity 59    
Minimum Humidity 41    
Precipitation  
Precipitation 0.00 in 0.09 in 1.40 in (1936)
Month to date precipitation 2.59 1.85  
Year to date precipitation 2.59 1.85  
Snow  
Snow 0.00 in 0.20 in 7.40 in (1961)
Month to date snowfall 9.0 3.5  
Since 1 July snowfall 20.2 7.2  
Snow Depth 0.00 in    
Sea Level Pressure  
Sea Level Pressure 29.82 in    
Wind  
Wind Speed 10 mph (SW)    
Max Wind Speed 25 mph    
Max Gust Speed 31 mph    
Visibility 10 miles    
Events      
T = Trace of Precipitation, MM = Missing Value Source: NWS Daily Summary

Daily Weather History Graph

Daily Weather History Graph

Search for Another Location

Airport or City:

Trip Planner

Search our weather history database for the weather conditions in past years. The results will help you decide how hot, cold, wet, or windy it might be!

Date:

Astronomy

Jan. 19, 2014 Rise Set
Actual Time 7:18 AM EST 5:05 PM EST
Civil Twilight 6:49 AM EST 5:34 PM EST
Nautical Twilight 6:16 AM EST 6:07 PM EST
Astronomical Twilight 5:44 AM EST 6:39 PM EST
Moon 8:40 PM EST (1/19) 8:47 AM EST (1/19)
Length of Visible Light 10h 45m
Length of Day
9h 46m
Waning Gibbous, 89% of the Moon is Illuminated
Jan 19
Waning Gibbous
Jan 24
Last Quarter
Jan 30
New
Feb 6
First Quarter
Feb 14
Full

Hourly Weather History & Observations

Time (EST) Temp. Windchill Dew Point Humidity Pressure Visibility Wind Dir Wind Speed Gust Speed Precip Events Conditions
12:54 AM 23.0 °F 11.1 °F 8.1 °F 53% 29.94 in 10.0 mi West 12.7 mph - N/A   Mostly Cloudy
1:54 AM 21.9 °F 11.0 °F 8.1 °F 55% 29.94 in 10.0 mi West 10.4 mph - N/A   Mostly Cloudy
2:54 AM 21.9 °F 13.4 °F 8.1 °F 55% 29.94 in 10.0 mi WSW 6.9 mph - N/A   Overcast
3:54 AM 23.0 °F 10.6 °F 9.0 °F 55% 29.92 in 10.0 mi West 13.8 mph - N/A   Overcast
4:54 AM 23.0 °F 14.7 °F 9.0 °F 55% 29.90 in 10.0 mi West 6.9 mph - N/A   Overcast
5:54 AM 23.0 °F 11.7 °F 10.0 °F 58% 29.91 in 10.0 mi WSW 11.5 mph - N/A   Overcast
6:54 AM 23.0 °F 13.1 °F 10.0 °F 58% 29.89 in 10.0 mi SW 9.2 mph - N/A   Mostly Cloudy
7:54 AM 23.0 °F 17.0 °F 10.9 °F 60% 29.88 in 10.0 mi SSW 4.6 mph - N/A   Mostly Cloudy
8:54 AM 25.0 °F 18.1 °F 10.9 °F 55% 29.88 in 10.0 mi SSW 5.8 mph - N/A   Mostly Cloudy
9:54 AM 28.0 °F 19.3 °F 12.0 °F 51% 29.86 in 10.0 mi SSW 9.2 mph - N/A   Mostly Cloudy
10:54 AM 30.9 °F 22.2 °F 14.0 °F 50% 29.83 in 10.0 mi SW 10.4 mph - N/A   Mostly Cloudy
11:54 AM 34.0 °F 25.5 °F 15.1 °F 46% 29.80 in 10.0 mi WSW 11.5 mph - N/A   Mostly Cloudy
12:54 PM 36.0 °F 27.1 °F 17.1 °F 46% 29.77 in 10.0 mi WSW 13.8 mph - N/A   Mostly Cloudy
1:54 PM 39.0 °F 31.0 °F 19.0 °F 45% 29.74 in 10.0 mi SW 13.8 mph - N/A   Mostly Cloudy
2:54 PM 39.9 °F 33.4 °F 19.9 °F 45% 29.74 in 10.0 mi SW 10.4 mph - N/A   Mostly Cloudy
3:54 PM 41.0 °F 32.2 °F 19.9 °F 43% 29.73 in 10.0 mi WSW 18.4 mph 26.5 mph N/A   Partly Cloudy
4:54 PM 39.0 °F 31.4 °F 19.9 °F 46% 29.74 in 10.0 mi SW 12.7 mph - N/A   Partly Cloudy
5:54 PM 37.9 °F 30.9 °F 19.9 °F 48% 29.75 in 10.0 mi SW 10.4 mph - N/A   Partly Cloudy
6:54 PM 37.0 °F 30.4 °F 21.0 °F 52% 29.75 in 10.0 mi SW 9.2 mph - N/A   Partly Cloudy
7:54 PM 37.0 °F 29.8 °F 21.0 °F 52% 29.75 in 10.0 mi WSW 10.4 mph - N/A   Partly Cloudy
8:54 PM 37.9 °F 30.9 °F 21.9 °F 53% 29.75 in 10.0 mi SW 10.4 mph - N/A   Partly Cloudy
9:54 PM 37.9 °F 30.5 °F 21.9 °F 53% 29.74 in 10.0 mi SW 11.5 mph - N/A   Clear
10:54 PM 36.0 °F 27.5 °F 23.0 °F 59% 29.74 in 10.0 mi WSW 12.7 mph - N/A   Clear
11:54 PM 32.0 °F 28.7 °F 21.9 °F 66% 29.73 in 10.0 mi WSW 3.5 mph - N/A   Clear